Flight Track Log - Related Links

Times and Time Zones

All times are in EDT time to prevent confusion due to time zone crossing. See the NKS562 flight status page for this flight to view local times or setup timezone preferences in your user account.


Time Position Orientation Groundspeed Altitude Reporting Facility
EDT Latitude Longitude Course Direction KTS MPH feet Rate Location/Type
Tue 09:41:57 AM 33.9420 -118.4740 263° West 185 213 1,900  Level FlightAware ADS-B
Tue 09:42:22 AM 33.9300 -118.4980 239° Southwest 221 254 2,400 1,200 Climbing FlightAware ADS-B
Tue 09:42:32 AM 33.9230 -118.5060 223° Southwest 248 285 2,600 3,750 Climbing FlightAware ADS-B
Tue 09:43:42 AM 33.8240 -118.5320 192° South 296 341 7,400 3,960 Climbing FlightAware ADS-B
Tue 09:44:12 AM 33.7870 -118.5280 175° South 296 341 9,200 3,086 Climbing FlightAware ADS-B
Tue 09:44:52 AM 33.7230 -118.5200 174° South 333 383 11,000 2,618 Climbing FlightAware ADS-B
Tue 09:45:07 AM 33.7040 -118.5080 152° Southeast 343 395 11,600 2,600 Climbing FlightAware ADS-B
Tue 09:45:22 AM 33.6880 -118.4870 132° Southeast 350 403 12,300 3,000 Climbing FlightAware ADS-B
Tue 09:45:37 AM 33.6780 -118.4580 113° Southeast 353 406 13,100 2,945 Climbing FlightAware ADS-B
Tue 09:46:17 AM 33.6880 -118.3810 81° East 356 410 15,000 2,175 Climbing FlightAware ADS-B
Tue 09:46:57 AM 33.7110 -118.3020 71° East 390 449 16,000 1,694 Climbing FlightAware ADS-B
Tue 09:47:42 AM 33.7380 -118.2100 71° East 412 474 17,400 1,976 Climbing FlightAware ADS-B
Tue 09:48:22 AM 33.7650 -118.1210 70° East 427 491 18,800 2,118 Climbing FlightAware ADS-B
Tue 09:49:07 AM 33.8100 -118.0300 59° Northeast 427 491 20,400 2,400 Climbing FlightAware ADS-B
Tue 09:49:47 AM 33.8740 -117.9740 36° Northeast 423 487 22,200 2,475 Climbing FlightAware ADS-B
Tue 09:50:27 AM 33.9360 -117.9180 37° Northeast 417 480 23,700 1,976 Climbing FlightAware ADS-B
Tue 09:51:12 AM 34.0020 -117.8570 37° Northeast 414 476 25,000 918 Climbing FlightAware ADS-B
Tue 09:51:52 AM 34.0640 -117.8010 37° Northeast 412 474 25,000  Level FlightAware ADS-B
Tue 09:52:37 AM 34.1290 -117.7250 44° Northeast 421 484 25,000  Level FlightAware ADS-B
Tue 09:53:17 AM 34.1800 -117.6560 48° Northeast 422 486 25,000  Level FlightAware ADS-B
Tue 09:53:57 AM 34.2320 -117.5850 48° Northeast 432 497 25,000  Level FlightAware ADS-B
Tue 09:54:42 AM 34.2920 -117.5040 48° Northeast 449 517 25,000  Level FlightAware ADS-B
Tue 09:55:22 AM 34.3480 -117.4280 48° Northeast 447 514 25,000  Level FlightAware ADS-B
Tue 09:56:07 AM 34.4100 -117.3430 49° Northeast 447 514 25,000  Level FlightAware ADS-B
Tue 09:56:47 AM 34.4630 -117.2700 49° Northeast 447 514 25,000  Level FlightAware ADS-B
Tue 09:57:27 AM 34.5190 -117.1940 48° Northeast 448 516 25,000  Level FlightAware ADS-B
Tue 09:58:12 AM 34.5770 -117.1130 49° Northeast 449 517 25,000  Level FlightAware ADS-B
Tue 09:58:52 AM 34.6360 -117.0320 48° Northeast 449 517 25,000  Level FlightAware ADS-B
Tue 09:59:32 AM 34.6900 -116.9580 48° Northeast 449 517 25,000  Level FlightAware ADS-B
Tue 10:00:17 AM 34.7530 -116.8700 49° Northeast 450 518 25,000  Level FlightAware ADS-B
Tue 10:00:57 AM 34.8100 -116.7920 48° Northeast 451 519 25,000  Level FlightAware ADS-B
Tue 10:01:37 AM 34.8580 -116.7240 49° Northeast 451 519 25,000  Level FlightAware ADS-B
Tue 10:02:17 AM 34.9050 -116.6590 49° Northeast 451 519 25,000  Level FlightAware ADS-B
Tue 10:03:07 AM 34.9860 -116.5500 48° Northeast 448 516 25,000 -333 Level FlightAware ADS-B
Tue 10:03:47 AM 35.0440 -116.4770 46° Northeast 433 498 24,500 -750 Descending FlightAware ADS-B
Tue 10:04:27 AM 35.1000 -116.4080 45° Northeast 422 486 24,000 -1,059 Descending FlightAware ADS-B
Tue 10:05:12 AM 35.1600 -116.3330 46° Northeast 431 496 23,000 -1,553 Descending FlightAware ADS-B
Tue 10:05:52 AM 35.2170 -116.2610 46° Northeast 411 473 21,800 -1,575 Descending FlightAware ADS-B
Tue 10:06:32 AM 35.2670 -116.1990 45° Northeast 396 456 20,900 -1,482 Descending FlightAware ADS-B
Tue 10:07:17 AM 35.3260 -116.1240 46° Northeast 396 456 19,700 -1,482 Descending FlightAware ADS-B
Tue 10:07:57 AM 35.3770 -116.0600 46° Northeast 389 448 18,800 -1,482 Descending FlightAware ADS-B
Tue 10:08:42 AM 35.4320 -115.9910 46° Northeast 381 438 17,600 -1,482 Descending FlightAware ADS-B
Tue 10:09:22 AM 35.4790 -115.9310 46° Northeast 374 430 16,700 -1,425 Descending FlightAware ADS-B
Tue 10:10:02 AM 35.5270 -115.8710 45° Northeast 364 419 15,700 -1,341 Descending FlightAware ADS-B
Tue 10:10:47 AM 35.5760 -115.8070 47° Northeast 338 389 14,800 -1,271 Descending FlightAware ADS-B
Tue 10:11:27 AM 35.6200 -115.7510 46° Northeast 323 372 13,900 -1,200 Descending FlightAware ADS-B
Tue 10:12:12 AM 35.6660 -115.6930 46° Northeast 306 352 13,100 -1,200 Descending FlightAware ADS-B
Tue 10:12:27 AM 35.6790 -115.6710 54° Northeast 316 364 12,700 -1,680 Descending FlightAware ADS-B
Tue 10:12:37 AM 35.6830 -115.6530 75° East 324 373 12,400 -1,200 Descending FlightAware ADS-B
Tue 10:13:22 AM 35.6750 -115.5730 97° East 313 360 11,600 -1,059 Descending FlightAware ADS-B
Tue 10:14:02 AM 35.6610 -115.5080 105° East 281 323 10,900 -1,200 Descending FlightAware ADS-B
Tue 10:14:42 AM 35.6480 -115.4480 105° East 273 314 10,000 -1,286 Descending FlightAware ADS-B
Tue 10:15:12 AM 35.6610 -115.4100 67° East 235 270 9,400 -1,333 Descending FlightAware ADS-B
Tue 10:15:27 AM 35.6760 -115.3990 31° Northeast 231 266 9,000 -1,200 Descending FlightAware ADS-B
Tue 10:15:52 AM 35.6980 -115.3860 26° Northeast 229 264 8,600 -982 Descending FlightAware ADS-B
Tue 10:16:22 AM 35.7270 -115.3680 27° Northeast 221 254 8,100 -764 Descending FlightAware ADS-B
Tue 10:16:47 AM 35.7520 -115.3550 23° Northeast 222 255 7,900 -218 Descending FlightAware ADS-B
Tue 10:17:17 AM 35.7800 -115.3390 25° Northeast 225 259 7,900  Level FlightAware ADS-B
Tue 10:17:47 AM 35.8090 -115.3220 25° Northeast 231 266 7,900  Level FlightAware ADS-B
Tue 10:18:02 AM 35.8220 -115.3150 24° Northeast 223 257 7,900 -450 Level FlightAware ADS-B
Tue 10:18:27 AM 35.8460 -115.3010 25° Northeast 219 252 7,600 -900 Descending FlightAware ADS-B
Tue 10:18:42 AM 35.8590 -115.2940 24° Northeast 218 251 7,300 -1,333 Descending FlightAware ADS-B
Tue 10:19:12 AM 35.8850 -115.2790 25° Northeast 212 244 6,600 -1,418 Descending FlightAware ADS-B
Tue 10:19:37 AM 35.9080 -115.2660 25° Northeast 186 214 6,000 -1,200 Descending FlightAware ADS-B
Tue 10:20:07 AM 35.9290 -115.2540 25° Northeast 148 170 5,500 -982 Descending FlightAware ADS-B
Tue 10:20:32 AM 35.9450 -115.2450 24° Northeast 149 171 5,100 -873 Descending FlightAware ADS-B
Tue 10:21:02 AM 35.9640 -115.2340 25° Northeast 150 173 4,700 -800 Descending FlightAware ADS-B
Tue 10:21:32 AM 35.9810 -115.2240 25° Northeast 127 146 4,300 -873 Descending FlightAware ADS-B
Tue 10:21:57 AM 35.9940 -115.2170 24° Northeast 122 140 3,900 -764 Descending FlightAware ADS-B
Tue 10:22:27 AM 36.0090 -115.2070 28° Northeast 123 142 3,600 -545 Descending FlightAware ADS-B
Tue 10:22:52 AM 36.0210 -115.1990 28° Northeast 124 143 3,400 -655 Descending FlightAware ADS-B
Tue 10:23:22 AM 36.0370 -115.1890 27° Northeast 122 140 3,000 -800 Descending FlightAware ADS-B
Tue 10:23:52 AM 36.0520 -115.1800 26° Northeast 123 142 2,600 -764 Descending FlightAware ADS-B
Tue 10:24:17 AM 36.0650 -115.1730 24° Northeast 121 139 2,300 -667 Descending FlightAware ADS-B
Tue 10:24:37 AM 36.0740 -115.1670 28° Northeast 123 142 2,100 -185 Descending FlightAware ADS-B
Tue 10:25:22 AM 36.0830 -115.1630 20° North 122 140 2,100  Level FlightAware ADS-B
Tue 10:32:00 AM 36.0801 -115.1523 33° Northeast  Level Estimated
Tue 10:33:00 AM 36.0801 -115.1523 270° West  Level Estimated

Login

Don't have an account? Register now (free) for customized features, flight alerts, and more!